Volver al catálogo

YAOGAN-30 L

ActivoMilitarVLEO
NORAD 43171·PAYLOAD·🇨🇳 China

Lanzado Jan 25, 2018 desde Xichang Satellite Launch Center

Loading…

Próximos Pases (próximas 24 horas)

TLE

ActualizadoSource: Space-Track

Época: Sep 14, 2026, 15:34 UTC

1 43171U 18011C   26257.64902368  .00001972  00000-0  14575-3 0  9991
2 43171  34.9962 325.3033 0001297  27.4964 332.5813 15.03003690471689

Sigue YAOGAN-30 L en tiempo real con AllMySat

Download on the App Store